Regional Weather Roundup
Issued by NWS

Home | Current Version | Previous Version | Graphics & Text | Print | Product List | Glossary On
Versions: 1 2 3 4 5 6 7 8 9 10 11 12 13 14 15 16 17 18 19 20 21 22 23 24 25 26 27 28 29 30 31 32 33 34 35 36 37 38 39 40 41 42 43 44 45 46 47 48 49 50
869
ASUS43 KLOT 141403
RWRIL

ILLINOIS REGIONAL WEATHER ROUNDUP
NATIONAL WEATHER SERVICE CHICAGO/ROMEOVILLE IL
800 AM CST SUN FEB 14 2016

NOTE: "FAIR" INDICATES FEW OR NO CLOUDS BELOW 12,000 FEET WITH NO
SIGNIFICANT WEATHER AND/OR OBSTRUCTIONS TO VISIBILITY.

* THESE STATIONS ARE NOT UNDER NWS QUALITY CONTROL. THEY ALSO MAY NOT
  REPORT WEATHER SUCH AS PRECIPITATION OR FOG.

ILZ001-002-007-009-015-016-024-141500-
NORTHWEST ILLINOIS

CITY           SKY/WX    TMP DP  RH WIND       PRES   REMARKS
MOLINE         CLOUDY    17  11  77 SE14      30.18F WCI   3
STERLING*      CLOUDY    16   7  67 SE15G22   30.20F WCI   1
$$

ILZ003-004-008-010-011-017-018-141500-
NORTH CENTRAL ILLINOIS

CITY           SKY/WX    TMP DP  RH WIND       PRES   REMARKS
ROCKFORD       CLOUDY    15   4  61 SE17      30.26F WCI  -1
FREEPORT*      FLURRIES  14   8  75 SE20      30.24F WCI  -3
DE KALB*       CLOUDY    14   4  64 SE17G23   30.25F WCI  -3
$$

ILZ005-006-012>014-019>023-141500-
NORTHEAST ILLINOIS

CITY           SKY/WX    TMP DP  RH WIND       PRES   REMARKS
CHICAGO-OHARE  CLOUDY    15   2  56 SE18      30.32F WCI  -2
CHICAGO-MIDWAY CLOUDY    16   1  51 SE15      30.33F WCI   1
AURORA         CLOUDY    16   3  56 E15       30.28F WCI   1
WAUKEGAN       CLOUDY    15   6  67 SE15G21   30.31F WCI   0
DUPAGE AIRPORT CLOUDY    14   1  56 E14       30.28F WCI  -1
WHEELING       PTSUNNY   15   2  56 SE9       30.34F WCI   3
NORTHERLY ISL    N/A     16   4  59 SE18        N/A  WCI   0
$$

LMZ740>746-141500-
SOUTHERN LAKE MICHIGAN

STATION/POSITION SKY/WX   TEMP    WIND        PRES    VSBY  WAVE
                          AIR SEA DIR/SP/G                  HT/PER
                          (F)     (DEG/KT/KT) (MB)    (MI)  (FT/S)
HARRISON CRIB              15     140/ 22/ 24   N/A
BURNHAM HARBOR             16     150/ 16/ 18   N/A
CALUMET HARBOR             14     120/  9/ 14 1027.8F
BURNS HARBOR               12     140/  6/ 12 1029.5F
MICHIGAN CITY               9     120/  9/ 10   N/A
$$

ILZ025>027-034>036-040-047-049-050-058-095>099-141500-
WEST-CENTRAL ILLINOIS

CITY           SKY/WX    TMP DP  RH WIND       PRES   REMARKS
QUINCY         LGT SNOW  20  12  71 SE16      30.14R WCI   6
MACOMB*        FLURRIES  17  13  88 SE22      30.19S WCI  -1
$$

ILZ028>032-037-038-041>044-048-051>054-059>061-141500-
CENTRAL ILLINOIS

CITY           SKY/WX    TMP DP  RH WIND       PRES   REMARKS
BLOOMINGTON    CLOUDY    16  12  84 SE17G24   30.23F WCI   0
DECATUR        CLOUDY    16  11  80 SE18      30.23F HAZE    WCI   0
PEORIA         MIX PCPN  16  10  77 E13G24    30.20F WCI   2
LINCOLN*       CLOUDY    17  13  84 SE16G23   30.20F WCI   2
SPRINGFIELD    CLOUDY    19  12  74 SE14      30.20F WCI   6
TAYLORVILLE    NOT AVBL
$$

ILZ033-039-045-046-055>057-062-063-141500-
EAST-CENTRAL ILLINOIS

CITY           SKY/WX    TMP DP  RH WIND       PRES   REMARKS
CHAMPAIGN      CLOUDY    16  11  80 E22G29    30.26F WCI  -2
MATTOON        CLOUDY    16  11  80 SE18G30   30.23F WCI   0
$$

ILZ079-100>102-141500-
SOUTHWEST ILLINOIS

CITY           SKY/WX    TMP DP  RH WIND       PRES   REMARKS
BELLEVILLE     CLOUDY    22  15  73 SE15G23   30.20F WCI   9
CAHOKIA*       CLOUDY    23  12  62 SE13      30.22S WCI  11
SPARTA*        CLOUDY    22  13  69 SE13G22   30.22F WCI  10
$$

ILZ064>066-069>071-074>076-080>082-084>086-088>090-092>094-141500-
SOUTH-CENTRAL ILLINOIS

CITY           SKY/WX    TMP DP  RH WIND       PRES   REMARKS
CARBONDALE     MIX PCPN  24  10  55 SE10      30.24F WCI  14
MARION         CLOUDY    25 N/A N/A SE12      30.25F WCI  14
MT. VERNON     CLOUDY    21  10  63 E15G23    30.25F WCI   8
CENTRALIA*     CLOUDY    23  13  65 SE16G22   30.22F WCI  10
SALEM*         CLOUDY    23   9  54 SE13G22   30.22F WCI  11
$$

ILZ067-068-072-073-078-083-087-091-141500-
SOUTHEAST ILLINOIS

CITY           SKY/WX    TMP DP  RH WIND       PRES   REMARKS
LAWRENCEVILLE  CLOUDY    19  13  77 E18       30.32F WCI   4
HARRISBURG*    CLOUDY    22  18  85 E17       30.29F WCI   8
$$

ABBREVIATIONS USED IN REMARKS
   TC - TEMPERATURE IN CELSIUS
  WCI - WIND CHILL INDEX
   HX - HEAT INDEX
  VSB - VISIBILITY
$$





USA.gov is the U.S. government's official web portal to all federal, state and local government web resources and services.